TimeMST,TemperatureF,Dew PointF,Humidity,Sea Level PressureIn,VisibilityMPH,Wind Direction,Wind SpeedMPH,Gust SpeedMPH,PrecipitationIn,Events,Conditions,WindDirDegrees,DateUTC
12:53 AM,86.0,45.0,24,29.66,10.0,WSW,3.5,-,N/A,,Partly Cloudy,240,2013-09-18 07:53:00
1:53 AM,84.0,45.0,25,29.67,10.0,ESE,4.6,-,N/A,,Clear,110,2013-09-18 08:53:00
2:53 AM,80.1,46.9,31,29.66,10.0,SSE,5.8,-,N/A,,Clear,150,2013-09-18 09:53:00
3:53 AM,79.0,46.0,31,29.65,10.0,SE,8.1,-,N/A,,Clear,140,2013-09-18 10:53:00
4:53 AM,78.1,46.9,33,29.66,10.0,SE,5.8,-,N/A,,Clear,140,2013-09-18 11:53:00
5:53 AM,75.9,46.9,36,29.68,10.0,SSE,8.1,-,N/A,,Clear,150,2013-09-18 12:53:00
6:53 AM,78.1,46.9,33,29.69,10.0,SSE,11.5,-,N/A,,Clear,150,2013-09-18 13:53:00
7:53 AM,82.0,45.0,27,29.70,10.0,SSE,6.9,-,N/A,,Clear,160,2013-09-18 14:53:00
8:53 AM,87.1,42.1,21,29.71,10.0,ESE,8.1,-,N/A,,Clear,110,2013-09-18 15:53:00
9:53 AM,91.0,41.0,17,29.71,10.0,Variable,3.5,-,N/A,,Clear,0,2013-09-18 16:53:00
10:53 AM,93.9,37.9,14,29.69,10.0,SW,4.6,-,N/A,,Clear,230,2013-09-18 17:53:00
11:53 AM,96.1,37.0,13,29.68,10.0,Calm,Calm,-,N/A,,Clear,0,2013-09-18 18:53:00
12:53 PM,97.0,36.0,12,29.65,10.0,North,4.6,-,N/A,,Clear,350,2013-09-18 19:53:00
1:53 PM,99.0,32.0,10,29.62,10.0,WNW,6.9,-,N/A,,Clear,290,2013-09-18 20:53:00
2:53 PM,99.0,34.0,10,29.60,10.0,Variable,3.5,-,N/A,,Clear,0,2013-09-18 21:53:00
3:53 PM,99.0,39.0,13,29.59,10.0,SSW,10.4,-,N/A,,Clear,200,2013-09-18 22:53:00
4:53 PM,98.1,39.0,13,29.58,10.0,Calm,Calm,-,N/A,,Clear,0,2013-09-18 23:53:00
5:53 PM,96.1,39.9,14,29.59,10.0,West,5.8,-,N/A,,Clear,270,2013-09-19 00:53:00
6:53 PM,93.0,44.1,18,29.60,10.0,West,6.9,-,N/A,,Clear,260,2013-09-19 01:53:00
7:53 PM,91.0,39.9,17,29.62,10.0,WNW,10.4,-,N/A,,Clear,290,2013-09-19 02:53:00
8:53 PM,89.1,39.9,18,29.65,10.0,NW,4.6,-,N/A,,Clear,320,2013-09-19 03:53:00
9:53 PM,82.9,44.1,25,29.67,10.0,West,4.6,-,N/A,,Clear,260,2013-09-19 04:53:00
10:53 PM,82.0,46.0,28,29.68,10.0,Calm,Calm,-,N/A,,Clear,0,2013-09-19 05:53:00
11:53 PM,81.0,46.0,29,29.68,10.0,SSW,4.6,-,N/A,,Clear,210,2013-09-19 06:53:00